DIDLX EDDN-EDTF

Flight info

Callsign DIDLX
Flight time 0h 30m
Altitude 28000
Route BOLSI1G BOLSI DCT DKB N869 TEDGO/N0482F240 T716 DENEL DCT D189L
Aircraft C750/M-SBDE3FGHRWXY/S

Departure

Time 2026-04-15 10:19
Airport Nuremberg Airport (EDDN)

Arrival

Time 2026-04-15 10:49
Airport Freiburg im Breisgau Airfield (EDTF)
Time Latitude Longitude Altitude Speed Heading
2026-04-15 10:10 49.49545 11.07137 1023 ft 0 kts
2026-04-15 10:15 49.49561 11.07141 1023 ft 7 kts
2026-04-15 10:15 49.49606 11.07208 1021 ft 11 kts 38°
2026-04-15 10:16 49.49631 11.07334 1025 ft 17 kts 98°
2026-04-15 10:16 49.49610 11.07531 1026 ft 19 kts 99°
2026-04-15 10:16 49.49591 11.07719 1026 ft 18 kts 99°
2026-04-15 10:16 49.49572 11.07916 1028 ft 19 kts 98°
2026-04-15 10:17 49.49550 11.08130 1029 ft 23 kts 98°
2026-04-15 10:17 49.49544 11.08342 1032 ft 11 kts 52°
2026-04-15 10:17 49.49575 11.08351 1033 ft 4 kts
2026-04-15 10:17 49.49610 11.08375 1032 ft 10 kts 44°
2026-04-15 10:18 49.49675 11.08509 1034 ft 20 kts 53°
2026-04-15 10:18 49.49790 11.08535 1032 ft 18 kts 307°
2026-04-15 10:18 49.49802 11.08490 1032 ft 0 kts 277°
2026-04-15 10:18 49.49857 11.07940 1031 ft 117 kts 278°
2026-04-15 10:19 49.50008 11.06380 1366 ft 157 kts 277°
2026-04-15 10:19 49.50126 11.04774 2502 ft 149 kts 277°
2026-04-15 10:19 49.50313 11.03089 3237 ft 173 kts 279°
2026-04-15 10:19 49.50529 11.01095 3951 ft 203 kts 278°
2026-04-15 10:20 49.50749 10.98842 4759 ft 228 kts 277°
2026-04-15 10:20 49.50994 10.96291 5533 ft 252 kts 277°
2026-04-15 10:20 49.51272 10.93499 6257 ft 273 kts 277°
2026-04-15 10:20 49.51551 10.90613 7469 ft 272 kts 277°
2026-04-15 10:21 49.51822 10.87706 8707 ft 275 kts 277°
2026-04-15 10:21 49.51577 10.84781 9804 ft 282 kts 246°
2026-04-15 10:21 49.50366 10.82466 10818 ft 285 kts 223°
2026-04-15 10:21 49.48854 10.80444 11776 ft 290 kts 222°
2026-04-15 10:22 49.47381 10.78287 12678 ft 296 kts 225°
2026-04-15 10:22 49.45599 10.76470 12957 ft 325 kts 201°
2026-04-15 10:22 49.43266 10.75919 13026 ft 355 kts 182°
2026-04-15 10:22 49.40731 10.75999 13560 ft 366 kts 177°
2026-04-15 10:23 49.38194 10.76189 14487 ft 365 kts 178°
2026-04-15 10:23 49.35634 10.76163 15178 ft 370 kts 182°
2026-04-15 10:23 49.33045 10.75995 15834 ft 375 kts 182°
2026-04-15 10:23 49.30416 10.75925 16537 ft 381 kts 180°
2026-04-15 10:24 49.27750 10.75776 17149 ft 388 kts 188°
2026-04-15 10:24 49.25256 10.74326 17897 ft 391 kts 210°
2026-04-15 10:24 49.23192 10.71615 18646 ft 396 kts 231°
2026-04-15 10:24 49.21862 10.67932 19337 ft 399 kts 251°
2026-04-15 10:25 49.21102 10.63836 20098 ft 401 kts 256°
2026-04-15 10:25 49.20431 10.59657 20839 ft 406 kts 257°
2026-04-15 10:25 49.19744 10.55444 21546 ft 411 kts 257°
2026-04-15 10:25 49.19001 10.51200 22258 ft 416 kts 256°
2026-04-15 10:26 49.18245 10.46898 22953 ft 421 kts 257°
2026-04-15 10:26 49.17506 10.42548 23661 ft 426 kts 257°
2026-04-15 10:26 49.16767 10.38187 24268 ft 430 kts 257°
2026-04-15 10:26 49.16000 10.33754 24860 ft 434 kts 257°
2026-04-15 10:27 49.15218 10.29280 25422 ft 438 kts 258°
2026-04-15 10:27 49.14326 10.24801 25900 ft 446 kts 250°
2026-04-15 10:27 49.12668 10.20733 26441 ft 454 kts 235°
2026-04-15 10:27 49.10698 10.16947 27086 ft 457 kts 233°
2026-04-15 10:28 49.08666 10.13193 27605 ft 462 kts 233°
2026-04-15 10:28 49.06628 10.09376 28133 ft 466 kts 234°
2026-04-15 10:28 49.04582 10.05451 28236 ft 481 kts 234°
2026-04-15 10:28 49.02457 10.01398 28240 ft 497 kts 234°
2026-04-15 10:29 49.00235 9.97240 28241 ft 512 kts 233°
2026-04-15 10:29 48.97954 9.92984 28242 ft 524 kts 233°
2026-04-15 10:29 48.95638 9.88622 28236 ft 535 kts 234°
2026-04-15 10:30 48.90925 9.79769 28231 ft 540 kts 233°
2026-04-15 10:30 48.86199 9.70962 28229 ft 543 kts 233°
2026-04-15 10:31 48.81430 9.62073 28217 ft 540 kts 233°
2026-04-15 10:31 48.76662 9.53238 28205 ft 541 kts 233°
2026-04-15 10:32 48.71891 9.44409 28207 ft 541 kts 233°
2026-04-15 10:32 48.67108 9.35598 28229 ft 539 kts 233°
2026-04-15 10:33 48.62651 9.26612 28200 ft 532 kts 245°
2026-04-15 10:33 48.61341 9.21441 28216 ft 525 kts 258°
2026-04-15 10:33 48.60621 9.16040 28244 ft 521 kts 263°
2026-04-15 10:34 48.59337 9.05251 28240 ft 521 kts 263°
2026-04-15 10:34 48.57987 8.94489 28238 ft 522 kts 263°
2026-04-15 10:35 48.56017 8.84036 28167 ft 524 kts 247°
2026-04-15 10:35 48.54967 8.78830 28192 ft 516 kts 264°
2026-04-15 10:35 48.54681 8.73457 28228 ft 513 kts 271°
2026-04-15 10:35 48.54600 8.68113 28237 ft 495 kts 272°
2026-04-15 10:36 48.54373 8.63110 27518 ft 463 kts 266°
2026-04-15 10:36 48.53801 8.58447 26535 ft 442 kts 260°
2026-04-15 10:36 48.53054 8.53994 25115 ft 436 kts 257°
2026-04-15 10:36 48.52286 8.49622 23804 ft 427 kts 257°
2026-04-15 10:37 48.51699 8.45271 22334 ft 418 kts 262°
2026-04-15 10:37 48.51264 8.41021 20961 ft 409 kts 262°
2026-04-15 10:37 48.50758 8.36832 19637 ft 402 kts 259°
2026-04-15 10:37 48.50173 8.32750 18350 ft 395 kts 258°
2026-04-15 10:38 48.49618 8.28685 17613 ft 392 kts 260°
2026-04-15 10:38 48.49064 8.24693 17043 ft 388 kts 256°
2026-04-15 10:38 48.47947 8.20997 16434 ft 385 kts 243°
2026-04-15 10:38 48.46700 8.17514 15939 ft 381 kts 242°
2026-04-15 10:39 48.45462 8.13996 15449 ft 378 kts 244°
2026-04-15 10:39 48.44256 8.10486 14963 ft 377 kts 244°
2026-04-15 10:39 48.43049 8.06996 14481 ft 373 kts 243°
2026-04-15 10:39 48.41841 8.03561 13995 ft 370 kts 243°
2026-04-15 10:40 48.40640 8.00150 13458 ft 366 kts 243°
2026-04-15 10:40 48.39476 7.96823 12319 ft 357 kts 243°
2026-04-15 10:40 48.38444 7.93870 10681 ft 290 kts 242°
2026-04-15 10:40 48.37539 7.91289 8654 ft 268 kts 242°
2026-04-15 10:41 48.36617 7.89042 7038 ft 244 kts 227°
2026-04-15 10:41 48.35251 7.87642 5800 ft 228 kts 200°
2026-04-15 10:41 48.33792 7.86774 5696 ft 218 kts 199°
2026-04-15 10:41 48.32460 7.85956 5684 ft 201 kts 199°
2026-04-15 10:42 48.31197 7.85184 5530 ft 192 kts 199°
2026-04-15 10:42 48.29987 7.84451 5276 ft 184 kts 199°
2026-04-15 10:42 48.28821 7.83747 5045 ft 179 kts 198°
2026-04-15 10:42 48.27670 7.83052 4799 ft 178 kts 198°
2026-04-15 10:43 48.26521 7.82356 4566 ft 178 kts 198°
2026-04-15 10:43 48.25369 7.81661 4340 ft 179 kts 199°
2026-04-15 10:43 48.24210 7.80961 4085 ft 180 kts 199°
2026-04-15 10:43 48.23050 7.80260 3860 ft 179 kts 199°
2026-04-15 10:44 48.21900 7.79567 3625 ft 178 kts 199°
2026-04-15 10:44 48.20747 7.78869 3377 ft 178 kts 199°
2026-04-15 10:44 48.19608 7.78193 3181 ft 177 kts 198°
2026-04-15 10:44 48.18429 7.77693 3003 ft 174 kts 188°
2026-04-15 10:45 48.17241 7.77474 2799 ft 177 kts 184°
2026-04-15 10:45 48.15972 7.77383 2501 ft 182 kts 181°
2026-04-15 10:45 48.14717 7.77499 2375 ft 178 kts 173°
2026-04-15 10:45 48.13522 7.77862 2373 ft 174 kts 166°
2026-04-15 10:46 48.12406 7.78293 2220 ft 157 kts 164°
2026-04-15 10:46 48.11435 7.78869 1938 ft 140 kts 159°
2026-04-15 10:46 48.10595 7.79300 1934 ft 121 kts 164°
2026-04-15 10:46 48.09788 7.79643 1881 ft 121 kts 166°
2026-04-15 10:47 48.08983 7.79942 1879 ft 119 kts 167°
2026-04-15 10:47 48.08165 7.80274 1816 ft 126 kts 164°
2026-04-15 10:47 48.07318 7.80659 1732 ft 128 kts 163°
2026-04-15 10:47 48.06753 7.80930 1679 ft 129 kts 162°
2026-04-15 10:48 48.05622 7.81485 1453 ft 131 kts 161°
2026-04-15 10:48 48.04774 7.81911 1278 ft 124 kts 161°
2026-04-15 10:48 48.03982 7.82329 1036 ft 121 kts 160°
2026-04-15 10:48 48.03170 7.82775 901 ft 125 kts 159°
2026-04-15 10:49 48.02631 7.83066 818 ft 119 kts 159°
2026-04-15 10:49 48.01974 7.83421 819 ft 69 kts 160°
2026-04-15 10:49 48.01790 7.83530 822 ft 9 kts 145°
2026-04-15 10:49 48.01800 7.83602 815 ft 11 kts 30°
2026-04-15 10:50 48.01867 7.83612 814 ft 9 kts 339°
2026-04-15 10:50 48.01921 7.83583 811 ft 8 kts 340°
2026-04-15 10:50 48.01973 7.83556 811 ft 8 kts 340°
2026-04-15 10:50 48.02039 7.83518 811 ft 11 kts 341°
2026-04-15 10:51 48.02112 7.83482 811 ft 11 kts 339°
2026-04-15 10:51 48.02184 7.83443 811 ft 11 kts 341°
2026-04-15 10:51 48.02247 7.83427 811 ft 6 kts 30°
2026-04-15 10:51 48.02276 7.83477 811 ft 9 kts 45°
2026-04-15 10:52 48.02275 7.83528 811 ft 4 kts 151°
2026-04-15 10:52 48.02268 7.83529 813 ft 0 kts 184°